Location: Palomar Mountain Lodge
(33.3110°N, 116.8495°W)
Time: 13:44:19
(UTC-08:00)

UNK - Pass Details

Date: 13 December 2025
Orbit: 653 x 673 km, 98.4° (Epoch: 21 January)

Event Time Altitude Azimuth Distance (km) Brightness Sun altitude
Rises 17:06:19 0° 9° (N) 3,005 6.8 -5.6°
Reaches altitude 10° 17:08:34 10° 7° (N) 2,085 6.0 -6.0°
Maximum altitude 17:13:05 68° 285° (WNW) 711 4.1 -6.9°
Drops below altitude 10° 17:17:33 10° 202° (SSW) 2,059 6.9 -7.7°
Sets 17:19:45 0° 200° (SSW) 2,964 7.7 -8.2°
